This is the latest recevied weather packets stored in our database for station/object MB7UUE. If no packets are shown the sender has not sent any weather packets the latest 10 day(s).
| Time | Temp. | Humidity | Pressure | Rain* | Wind** | Luminosity | Snow |
|---|---|---|---|---|---|---|---|
| 1788677443 | 15° C | 79% | 1023 hPa | 0 mm | - | - | - |
| 1788676303 | 14.44° C | 80% | 1023.2 hPa | 0 mm | - | - | - |
| 1788675158 | 14.44° C | 80% | 1023.2 hPa | 0 mm | - | - | - |
| 1788674752 | 13.89° C | 80% | 1023.3 hPa | 0 mm | - | - | - |
| 1788674386 | 13.89° C | 81% | 1023.3 hPa | 0 mm | - | - | - |
| 1788673611 | 13.89° C | 81% | 1023.3 hPa | 0 mm | - | - | - |
| 1788673245 | 13.89° C | 80% | 1023.4 hPa | 0 mm | - | - | - |
| 1788672472 | 13.89° C | 80% | 1023.4 hPa | 0 mm | - | - | - |
| 1788672105 | 13.89° C | 80% | 1023.4 hPa | 0 mm | - | - | - |
| 1788671332 | 13.89° C | 80% | 1023.3 hPa | 0 mm | - | - | - |
| 1788670966 | 13.89° C | 81% | 1023.4 hPa | 0 mm | - | - | - |
| 1788670191 | 13.89° C | 80% | 1023.3 hPa | 0 mm | - | - | - |
| 1788669826 | 13.89° C | 81% | 1023.2 hPa | 0 mm | - | - | - |
| 1788669052 | 13.89° C | 81% | 1023.2 hPa | 0 mm | - | - | - |
| 1788668686 | 13.89° C | 81% | 1023.3 hPa | 0 mm | - | - | - |
| 1788667911 | 13.89° C | 81% | 1023.3 hPa | 0 mm | - | - | - |
| 1788667545 | 13.33° C | 81% | 1023.3 hPa | 0 mm | - | - | - |
| 1788666772 | 12.78° C | 82% | 1023.4 hPa | 0 mm | - | - | - |
| 1788666406 | 13.33° C | 78% | 1023.5 hPa | 0 mm | - | - | - |
| 1788665632 | 13.89° C | 77% | 1023.4 hPa | 0 mm | - | - | - |
| 1788665266 | 13.89° C | 76% | 1023.5 hPa | 0 mm | - | - | - |
| 1788664491 | 13.89° C | 76% | 1023.7 hPa | 0 mm | - | - | - |
| 1788664127 | 13.89° C | 76% | 1023.8 hPa | 0 mm | - | - | - |
| 1788663351 | 13.89° C | 76% | 1023.9 hPa | 0 mm | - | - | - |
| 1788662985 | 13.89° C | 75% | 1024.1 hPa | 0 mm | - | - | - |
* Rain latest hour (hover to see other rain measurements)
** Current wind speed in m/s (hover to see current wind gust speed)